GPS BIIA-10 (PRN 32) 1 20959U 90103A 09183.54254834 -.00000076 00000-0 10000-3 0 3121 2 20959 55.2036 282.3750 0134150 293.7466 64.8828 2.00549686136215 GPS BIIA-11 (PRN 24) 1 21552U 91047A 09184.24758265 .00000071 00000-0 10000-3 0 3319 2 21552 54.4636 220.3510 0067658 321.4813 38.1154 2.00563017131812 GPS BIIA-12 (PRN 25) 1 21890U 92009A 09182.75542667 -.00000086 00000-0 10000-3 0 3333 2 21890 55.5810 32.1372 0115243 290.6178 68.1974 2.00566740127165 GPS BIIA-14 (PRN 26) 1 22014U 92039A 09184.43764678 -.00000105 00000-0 10000-3 0 2308 2 22014 56.8800 340.6813 0202154 58.2032 303.7460 2.00421479117963 GPS BIIA-15 (PRN 27) 1 22108U 92058A 09183.94384495 -.00000080 00000-0 10000-3 0 1371 2 22108 55.8462 34.1806 0215001 269.6026 87.9868 2.00551681123131 GPS BIIA-21 (PRN 09) 1 22700U 93042A 09183.47499190 -.00000082 00000-0 10000-3 0 4993 2 22700 55.9589 35.5857 0204186 85.4332 276.9505 2.00568705117289 GPS BIIA-23 (PRN 04) 1 22877U 93068A 09184.11083417 .00000073 00000-0 10000-3 0 8059 2 22877 53.8707 217.7297 0085322 26.7715 333.7418 2.00553110114946 GPS BIIA-24 (PRN 06) 1 23027U 94016A 09184.31444539 .00000034 00000-0 10000-3 0 8236 2 23027 53.5097 154.7941 0061930 283.3998 75.8815 2.00559871112259 GPS BIIA-25 (PRN 03) 1 23833U 96019A 09184.33066849 .00000025 00000-0 10000-3 0 155 2 23833 53.0821 150.9031 0118456 51.4378 309.5799 2.00567451 97235 GPS BIIA-26 (PRN 10) 1 23953U 96041A 09184.25109407 -.00000064 00000-0 10000-3 0 4699 2 23953 54.8779 278.8305 0084669 33.3342 327.2276 2.00569941 95029 GPS BIIA-27 (PRN 30) 1 24320U 96056A 09183.10463614 -.00000065 00000-0 10000-3 0 2026 2 24320 54.5669 95.0557 0113395 81.7022 279.5842 2.00574130 93664 GPS BIIR-02 (PRN 13) 1 24876U 97035A 09184.20154638 -.00000104 00000-0 10000-3 0 9846 2 24876 56.9992 340.8304 0039056 92.0643 268.3834 2.00561899 87557 GPS BIIA-28 (PRN 08) 1 25030U 97067A 09183.83175472 -.00000078 00000-0 10000-3 0 8918 2 25030 56.6689 41.0062 0106184 172.6182 187.5977 2.00567488 85447 GPS BIIR-03 (PRN 11) 1 25933U 99055A 09183.97131145 .00000078 00000-0 10000-3 0 4435 2 25933 50.9576 205.1311 0092780 39.3845 321.3426 2.00561015 71365 GPS BIIR-04 (PRN 20) 1 26360U 00025A 09183.57142683 -.00000064 00000-0 10000-3 0 5374 2 26360 53.9442 276.0566 0036761 77.7338 282.7161 2.00573871 67054 GPS BIIR-05 (PRN 28) 1 26407U 00040A 09183.91205531 -.00000063 00000-0 10000-3 0 4832 2 26407 55.4057 99.2332 0151371 244.7832 113.6386 2.00566638 65738 GPS BIIR-06 (PRN 14) 1 26605U 00071A 09184.00846433 -.00000105 00000-0 10000-3 0 4870 2 26605 56.6275 339.7078 0047101 237.9814 121.5545 2.00571058 63332 GPS BIIR-07 (PRN 18) 1 26690U 01004A 09183.88162427 -.00000068 00000-0 10000-3 0 3754 2 26690 53.9645 279.1299 0107047 222.9002 136.2957 2.00571537 61743 GPS BIIR-08 (PRN 16) 1 27663U 03005A 09183.73228767 -.00000063 00000-0 10000-3 0 7414 2 27663 55.5088 98.7750 0054175 338.6926 21.0788 2.00575835 47093 GPS BIIR-09 (PRN 21) 1 27704U 03010A 09183.29510230 .00000067 00000-0 10000-3 0 6340 2 27704 53.5079 218.5159 0155078 212.7876 146.3118 2.00570688 45875 GPS BIIR-10 (PRN 22) 1 28129U 03058A 09183.42400754 -.00000072 00000-0 10000-3 0 2576 2 28129 53.8309 279.4670 0052995 252.4132 107.0426 2.00565104 40586 GPS BIIR-11 (PRN 19) 1 28190U 04009A 09184.36899895 .00000049 00000-0 10000-3 0 1957 2 28190 54.8634 161.6770 0058293 338.6507 21.0823 2.00570059 38778 GPS BIIR-12 (PRN 23) 1 28361U 04023A 09183.65647285 -.00000107 00000-0 10000-3 0 212 2 28361 55.5943 337.8201 0062107 168.5043 191.6377 2.00572442 36841 GPS BIIR-13 (PRN 02) 1 28474U 04045A 09184.15107896 .00000075 00000-0 10000-3 0 8981 2 28474 53.9266 216.6911 0090358 164.6229 195.7235 2.00563798 34211 GPS BIIRM-1 (PRN 17) 1 28874U 05038A 09184.00451783 .00000048 00000-0 10000-3 0 1588 2 28874 54.9959 158.4843 0046175 212.2725 147.4203 2.00560937 27630 GPS BIIRM-2 (PRN 31) 1 29486U 06042A 09184.11633751 -.00000079 00000-0 10000-3 0 4783 2 29486 55.7735 37.3868 0072311 294.0229 65.2728 2.00557028 20337 GPS BIIRM-3 (PRN 12) 1 29601U 06052A 09184.06407853 -.00000065 00000-0 10000-3 0 4986 2 29601 55.4194 97.7879 0034798 315.9822 43.7521 2.00567786 19245 GPS BIIRM-4 (PRN 15) 1 32260U 07047A 09183.36273717 -.00000109 00000-0 00000+0 0 2665 2 32260 54.7927 336.6624 0015696 325.3811 34.5099 2.00569293 12626 GPS BIIRM-5 (PRN 29) 1 32384U 07062A 09184.19217031 .00000046 00000-0 10000-3 0 2910 2 32384 55.0068 158.9494 0036512 282.9831 76.5897 2.00564587 11366 GPS BIIRM-6 (PRN 07) 1 32711U 08012A 09183.78328418 -.00000082 00000-0 10000-3 0 1826 2 32711 55.4528 37.5077 0026514 169.7797 190.3282 2.00564758 9560 GPS BIIRM-7 (PRN 01) 1 34661U 09014A 09183.10651023 -.00000062 00000-0 10000-3 0 706 2 34661 55.0718 97.1192 0032996 50.0613 310.2286 2.00555315 2067